COSMOS 1372

Satellite information

Favourite Embed

Satellite Type and Status

PAYLOADIN ORBIT

Key statistics

Satellite COSMOS 1372 at a glance.

Uptime

15848

Days in orbit

Revolutions

≈ 13.9

Per day

Orbit

LEO

Low Earth Orbit

Inclination

64.9

Latest

Satellite identification and parameters

Extended collection of information and parameters for COSMOS 1372.

Object identification

Identified? True

Debris? False

Object name: COSMOS 1372

International designator: 1982-052A

Object number (NORAD): 13243

Object ID (CCSDS): 13243

Country: COMMONWEALTH OF INDEPENDENT STATES (CIS)

Current information (Y/N): Y

RCS size: LARGE

Orbital parameters

Period: 103.889 minutes

Inclination: 64.9011 deg

SMA: 7320.475 km

Apoapsis: 970.482 km

Periapsis: 914.199 km

RAAN: 152.2811 deg

Eccentricy: 0.00384425

Argument of periapsis: 332.7644 deg

Mean anomaly: 27.1399 deg

Mean motion: 13.86097663 rev/day

Mean motion (dot): -0.00000029 rev/day2

B* drag term: 0.000052827129 1/REarth

Two-line elements (TLE)

Creation date: Oct. 21, 2025, 3:26 a.m.

Reference frame: TEME

Reference center: EARTH

Epoch: Oct. 20, 2025, 9:05 p.m. UTC

TLE line 0: 0 COSMOS 1372

TLE line 1: 1 13243U 82052A 25293.87906614 -.00000029 00000-0 52827-4 0 9992

TLE line 2: 2 13243 64.9011 152.2811 0038442 332.7644 27.1399 13.86097663613130

Live tracking on map

Real-time ground track for satellite COSMOS 1372.

In-orbit conjunctions

A list of the most updated potential collisions computed for object COSMOS 1372.

Target Orbit TCA Probability of collision Miss distance Type
COSMOS 1275 DEB LEO 2025-02-14 08:34:50 0.0004195071 173.0 (m) DEBRIS
CZ-6A DEB SSO 2024-06-03 16:59:08 0.002063335 72.0 (m) DEBRIS

Associated space launch

Active radar satellite for ocean surveillance powered by a nuclear reactor.

COSMOS 1372 was lifted into orbit during the mission ‘Tsiklon-2 | US-A 21’, on board a Tsiklon-2 space rocket.

The launch took place on June 1, 1982, 1:58 p.m. from 90.

For more information about the launch, click the button.

Launch to space Tsiklon-2 | US-A 21
Tsiklon-2 | US-A 21

Agency: N/A

Status: Launch Successful

Launch date: June 1, 1982, 1:58 p.m. UTC

Rocket: Tsiklon-2

Launch pad: 90

Location: Baikonur Cosmodrome, Republic of Kazakhstan

...

Latest news about this satellite

There are no fresh news available about this satellite. Check back as we update our databases every day.


Newsletter sign-up

Weekly statistics, charts and insights to help you stay on top of the space industry.